Вернуться в каталог

STARLINK-3783

АктивенСвязьVLEO
NORAD 52282·PAYLOAD·🇺🇸 United States

Запущен Apr 21, 2022 с Cape Canaveral Space Force Station

Loading…

Ближайшие Пролёты (ближайшие 24 часа)

TLE

СвежийSource: CelesTrak SupGP

Эпоха: Sep 15, 2026, 01:26 UTC

1 52282C 22041X   26258.06020833  .00043699  00000+0  13261-2 0  2586
2 52282  53.1587 317.2224 0001243  89.9296  38.5614 15.33523514    14

Отслеживайте STARLINK-3783 в реальном времени с AllMySat

Download on the App Store